Location: Moscow Pond
(43.6842°N, 73.2366°W)
Time: 07:19:26
(UTC+00:00)

Cosmos 407 Rocket - Pass Details

Date: 08 November 2025
Orbit: 740 x 780 km, 74.0° (Epoch: 06 December)

Event Time Altitude Azimuth Distance (km) Brightness Sun altitude
Exits shadow 09:55:11 - 342° (NNW) 2,724 6.1 -18.9°
Reaches altitude 10° 09:56:22 10° 343° (NNW) 2,261 5.7 -18.6°
Maximum altitude 10:01:28 72° 68° (ENE) 783 3.7 -17.7°
Drops below altitude 10° 10:06:32 10° 153° (SSE) 2,246 6.4 -16.8°
Sets 10:08:54 0° 155° (SSE) 3,167 7.2 -16.4°
